COSMOS 1275 DEB, 13807

Orbit data source: Space-Track

COSMOS 1275 DEB, 13807 is space debris in LEO originally from a launch on Thu, 04 Jun 1981 UTC launched from the Plesetsk Missile And Space Complex (PKMTR). Debris objects in space refer to the collection of defunct objects orbiting the Earth. Examples of debris include non-operational satellites, rocket bodies, and fragments generated from explosions, collisions, or faulty payload assembly.

Loading next visibility...
Identifier
13807, 1981-053HB
Orbit
LEO
Country
Flag of CISCIS
Related business
Manufacturer
Unknown
Mission
Spacecraft
Bus & Motor
Unknown
Mass
Unknown
Launch date (UTC)
1981-06-04 (45 years ago)
Launch vehicle
Unknown
Launch site
Plesetsk Missile And Space Complex (PKMTR)
Object type
Payload
Rocket body
Debris
Shape & HBR
Unknown shape, 0.1 m
Radar Cross Section
Medium (>0.1 m² and <1 m²)

Expand to show TLE details & history
Last TLE update: 2 days ago

TLE from 2 days ago
0 COSMOS 1275 DEB
1 13807U 81053HB  26171.01096484  .00002657  00000-0  98387-3 0  9993
2 13807  82.9465  23.0020 0013257  31.4095 328.7882 14.31981707980053
Epoch: 2026-06-20T00:15Z
TLE epoch observation values (Epoch: 2026-06-20T00:15:47.362Z)
Latitude
0.00001°
Longitude
110.82294°
Altitude
779.974 km
Speed
7.468 km/s
True Right ascension
01h 32m 00s
True Declination
0° 00' 00"
Sunlit
Object was in daylight at epoch
Visualization orbit readout
Latitude
Unknown
Longitude
Unknown
Altitude
Unknown
Speed
Unknown
Apparent Right ascension
Unknown
Apparent Declination
Unknown
Sunlit
N/A
Visualization observer readout
Local Sidereal Time
16:06:14
Azimuth
Unknown
Elevation
Unknown
Doppler factor
Unknown
Orbital elements
Apogee altitude
791.677 km
Perigee altitude
772.692 km
Semi-major axis
7,160.322 km
Eccentricity
0.00133
Inclination
82.9465°
RAAN
23.002°
Arg. of periapsis
31.4095°
True anomaly
328.70937°
Mean anomaly
328.7882°
Eccentric anomaly
328.74879°
Mean motion
3.58215 °/min
Orbital period
100.5 mins
BSTAR
0.00098387
Loading maneuver chart data...
Computing Atmospheric mass density...
Loading historical data...
Loading historical data...
Loading historical data...
Loading historical data...
Loading historical data...
Loading historical data...
Loading historical data...

Documentation

Showing up to 5 results
|